Regional Weather Roundup
Issued by NWS

Home | Current Version | Previous Version | Text Only | Print | Product List | Glossary Off
Versions: 1 2 3 4 5 6 7 8 9 10 11 12 13 14 15 16 17 18 19 20 21 22 23 24 25 26 27 28 29 30 31 32 33 34 35 36 37 38 39 40 41 42 43 44 45 46 47 48 49 50

000
ASUS43 KLSX 012159
RWRMO

WEATHER SUMMARY FOR MISSOURI
NATIONAL WEATHER SERVICE SPRINGFIELD MO
500 PM CDT MON SEP 01 2014

NOTE: "FAIR" INDICATES FEW OR NO CLOUDS BELOW 12,000 FEET WITH NO
       SIGNIFICANT WEATHER AND/OR OBSTRUCTIONS TO VISIBILITY.
       CURRENT SKY AND/OR WEATHER CONDITIONS ARE NOT AVAILABLE FOR
       CHILLICOTHE AND FARMINGTON.

MOZ001>031-035>038-043-044-053-054-012300-
...NORTHERN AND WESTERN MISSOURI...

CITY           SKY/WX    TMP DP  RH WIND       PRES   REMARKS
KANSAS CTY INT CLOUDY    77  68  73 W6        29.89S
KANSAS C DTWN  CLOUDY    80  68  66 W5        29.87S
LEE`S SUMMIT   CLOUDY    77  68  73 SW5       29.89S
ST JOSEPH      MOSUNNY   80  67  64 W7        29.87S
CHILLICOTHE      N/A     81  68  64 VRB3      29.88S
KIRKSVILLE     MOSUNNY   79  67  66 SW10      29.88S

$$
MOZ066>068-077>081-088>096-101>105-012300-
...SOUTHWEST MISSOURI...

CITY           SKY/WX    TMP DP  RH WIND       PRES   REMARKS
SPRINGFIELD    MOSUNNY   86  68  54 S15       29.89F
JOPLIN         CLOUDY    87  71  58 S13       29.85F HX  93

$$
MOZ032>034-039>042-045>050-055>058-069>072-012300-
...CENTRAL MISSOURI...

CITY           SKY/WX    TMP DP  RH WIND       PRES   REMARKS
COLUMBIA       PTSUNNY   82  67  60 W9        29.90S
JEFFERSON CITY CLOUDY    82  65  56 W3        29.88F
ROLLA          CLOUDY    79  67  66 CALM      29.91F
SEDALIA        CLOUDY    80  67  64 CALM      29.88F
WHITEMAN AFB   PTSUNNY   79  68  69 VRB1      29.87F
OSAGE BEACH    CLOUDY    82  66  57 CALM      29.89F

$$
MOZ051-052-059>065-012300-
...EAST CENTRAL MISSOURI...

CITY           SKY/WX    TMP DP  RH WIND       PRES   REMARKS
ST LOUIS INTL  MOSUNNY   86  66  51 W9        29.91R
SPIRIT OF STL  MOSUNNY   84  66  54 W6        29.89S
ST CHARLES     MOSUNNY   84  65  52 VRB5      29.89R

$$
MOZ072>076-082>087-097>100-106>115-012300-
...SOUTH CENTRAL AND SOUTHEAST MISSOURI...

CITY           SKY/WX    TMP DP  RH WIND       PRES   REMARKS
CAPE GIRARDEAU PTSUNNY   85  73  67 SW14      29.92S HX  91
FARMINGTON     MOSUNNY   82  66  57 S5        29.95F
POPLAR BLUFF   MOSUNNY   88  71  57 SW12G20   29.90S HX  94
WEST PLAINS    SUNNY     85  68  56 S14G20    29.94F

$$


USA.gov is the U.S. government's official web portal to all federal, state and local government web resources and services.